OK,66,51,704,66,2014-10-01T01:40:00,0,28072031,198167
OK,66,51,704,66,2014-10-01T01:45:00,0,28072474,198167
OK,66,51,704,66,2014-10-01T01:50:00,0,28072923,198167
OK,66,51,704,66,2014-10-01T01:55:00,0,28073370,198167
OK,66,51,704,66,2014-10-01T02:05:00,0,28074136,198167
OK,66,51,704,66,2014-10-01T02:10:00,0,28074585,198167
OK,66,51,704,66,2014-10-01T02:15:00,0,28075025,198167
OK,66,51,704,66,2014-10-01T02:20:00,0,28075474,198167
OK,66,51,704,66,2014-10-01T02:25:00,0,28075923,198167
OK,66,51,704,66,2014-10-01T02:30:00,0,28076306,198167
OK,66,51,704,66,2014-10-01T02:35:00,0,28076755,198167
OK,66,51,704,66,2014-10-01T02:40:00,0,28077204,198167
OK,66,51,704,66,2014-10-01T02:45:00,0,28077653,198167
OK,66,51,704,66,2014-10-01T02:50:00,0,28078056,198167
OK,66,51,704,66,2014-10-01T02:55:00,0,28078505,198167
OK,66,51,704,66,2014-10-01T03:00:00,0,28078950,198167
OK,92,36,704,92,2014-10-01T03:05:00,0,28079398,198167
OK,92,36,704,92,2014-10-01T03:10:00,0,28079841,198167
OK,92,36,704,92,2014-10-01T03:20:00,0,28080624,198167
OK,92,36,704,92,2014-10-01T03:25:00,0,28081073,198167
OK,92,36,704,92,2014-10-01T03:30:00,0,28081522,198167
OK,92,36,704,92,2014-10-01T03:35:00,0,28081969,198167
OK,68,49,704,68,2014-10-01T03:40:00,1,28082418,198167
OK,51,66,704,51,2014-10-01T03:45:00,0,28082851,198167
OK,51,66,704,51,2014-10-01T03:50:00,0,28083283,198167
OK,51,66,704,51,2014-10-01T03:55:00,0,28083732,198167
OK,85,39,704,85,2014-10-01T04:00:00,2,28084181,198167
OK,78,43,704,78,2014-10-01T04:05:00,3,28084622,198167
OK,60,56,704,60,2014-10-01T04:10:00,3,28085047,198167
OK,59,57,704,59,2014-10-01T04:15:00,2,28085496,198167
OK,59,57,704,59,2014-10-01T04:20:00,0,28085941,198167
OK,59,57,704,59,2014-10-01T04:25:00,0,28086390,198167
OK,59,57,704,59,2014-10-01T04:30:00,0,28086832,198167
OK,59,57,704,59,2014-10-01T04:35:00,0,28087281,198167
OK,89,38,704,89,2014-10-01T04:40:00,2,28087726,198167
OK,69,49,704,69,2014-10-01T04:45:00,4,28088175,198167
OK,62,54,704,62,2014-10-01T04:50:00,2,28088599,198167
OK,64,52,704,64,2014-10-01T04:55:00,4,28089048,198167
OK,62,54,704,62,2014-10-01T05:00:00,3,28089478,198167
OK,64,52,704,64,2014-10-01T05:05:00,1,28089927,198167
OK,75,45,704,75,2014-10-01T05:10:00,4,28090376,198167
OK,70,48,704,70,2014-10-01T05:15:00,4,28090720,198167
OK,78,43,704,78,2014-10-01T05:20:00,5,28091169,198167
OK,87,38,704,87,2014-10-01T05:25:00,8,28091618,198167
OK,87,38,704,87,2014-10-01T05:30:00,10,28092035,198167
OK,86,39,704,86,2014-10-01T05:35:00,3,28092484,198167
OK,100,33,704,100,2014-10-01T05:40:00,1,28092928,198167
OK,90,37,704,90,2014-10-01T05:45:00,6,28093369,198167
OK,93,36,704,93,2014-10-01T05:50:00,6,28093800,198167
OK,93,36,704,93,2014-10-01T05:55:00,7,28094249,198167
OK,87,38,704,87,2014-10-01T06:00:00,8,28094660,198167
OK,85,39,704,85,2014-10-01T06:05:00,6,28095105,198167
OK,95,35,704,95,2014-10-01T06:10:00,6,28095552,198167
OK,97,34,704,97,2014-10-01T06:15:00,8,28096001,198167
OK,90,37,704,90,2014-10-01T06:20:00,11,28096414,198167
OK,90,37,704,90,2014-10-01T06:25:00,9,28096863,198167
OK,78,43,704,78,2014-10-01T06:30:00,5,28097297,198167
OK,79,42,704,79,2014-10-01T06:35:00,4,28097746,198167
OK,86,39,704,86,2014-10-01T06:40:00,6,28098195,198167
OK,88,38,704,88,2014-10-01T06:45:00,4,28098632,198167
OK,67,50,704,67,2014-10-01T06:50:00,3,28099076,198167
OK,67,50,704,67,2014-10-01T06:55:00,7,28099524,198167
OK,77,44,704,77,2014-10-01T07:00:00,7,28099867,198167
OK,76,44,704,76,2014-10-01T07:10:00,4,28100623,198167
OK,76,44,704,76,2014-10-01T07:15:00,8,28101071,198167
OK,71,47,704,71,2014-10-01T07:20:00,5,28101443,198167
OK,63,53,704,63,2014-10-01T07:25:00,1,28101892,198167
OK,63,53,704,63,2014-10-01T07:30:00,0,28102328,198167
OK,63,53,704,63,2014-10-01T07:35:00,0,28102777,198167
OK,91,37,704,91,2014-10-01T07:40:00,1,28103204,198167
OK,72,47,704,72,2014-10-01T07:45:00,3,28103651,198167
OK,72,47,704,72,2014-10-01T07:50:00,2,28104096,198167
OK,85,39,704,85,2014-10-01T07:55:00,2,28104541,198167
OK,101,33,704,101,2014-10-01T08:00:00,2,28104982,198167
OK,87,38,704,87,2014-10-01T08:05:00,2,28105427,198167
OK,69,49,704,69,2014-10-01T08:10:00,0,28105867,198167
OK,78,43,704,78,2014-10-01T08:15:00,1,28106316,198167
OK,89,38,704,89,2014-10-01T08:20:00,2,28106753,198167
OK,96,35,704,96,2014-10-01T08:25:00,1,28107159,198167
OK,62,54,704,62,2014-10-01T08:30:00,1,28107591,198167
OK,76,44,704,76,2014-10-01T08:35:00,2,28108040,198167
OK,90,37,704,90,2014-10-01T08:40:00,1,28108479,198167
OK,101,33,704,101,2014-10-01T08:45:00,2,28108928,198167
OK,89,38,704,89,2014-10-01T08:50:00,2,28109356,198167
OK,81,41,704,81,2014-10-01T08:55:00,4,28109799,198167
OK,87,38,704,87,2014-10-01T09:00:00,3,28110148,198167
OK,85,39,704,85,2014-10-01T09:05:00,4,28110597,198167
OK,85,39,704,85,2014-10-01T09:10:00,4,28111020,198167
OK,69,49,704,69,2014-10-01T09:15:00,1,28111469,198167
OK,76,44,704,76,2014-10-01T09:20:00,5,28111898,198167
OK,77,44,704,77,2014-10-01T09:30:00,1,28112688,198167
OK,77,44,704,77,2014-10-01T09:35:00,0,28113137,198167
OK,78,43,704,78,2014-10-01T09:40:00,2,28113561,198167
OK,59,57,704,59,2014-10-01T09:45:00,1,28114010,198167
OK,70,48,704,70,2014-10-01T09:50:00,1,28114442,198167
OK,91,37,704,91,2014-10-01T10:00:00,3,28115245,198167
OK,91,37,704,91,2014-10-01T10:05:00,0,28115694,198167
OK,75,45,704,75,2014-10-01T10:10:00,1,28116106,198167
OK,75,45,704,75,2014-10-01T10:15:00,1,28116555,198167
OK,62,54,704,62,2014-10-01T10:20:00,3,28116963,198167
OK,65,52,704,65,2014-10-01T10:25:00,2,28117412,198167
OK,58,58,704,58,2014-10-01T10:30:00,0,28117837,198167
OK,118,28,704,118,2014-10-01T10:35:00,2,28118286,198167
OK,97,34,704,97,2014-10-01T10:40:00,6,28118731,198167
OK,96,35,704,96,2014-10-01T10:45:00,0,28119178,198167
OK,83,40,704,83,2014-10-01T10:50:00,1,28119622,198167
OK,87,38,704,87,2014-10-01T10:55:00,3,28120070,198167
OK,82,41,704,82,2014-10-01T11:00:00,4,28120518,198167
OK,73,46,704,73,2014-10-01T11:05:00,4,28120967,198167
OK,71,47,704,71,2014-10-01T11:10:00,3,28121350,198167
OK,68,49,704,68,2014-10-01T11:15:00,1,28121799,198167
OK,102,33,704,102,2014-10-01T11:20:00,3,28122237,198167
OK,102,33,704,102,2014-10-01T11:25:00,3,28122686,198167
OK,73,46,704,73,2014-10-01T11:30:00,3,28123127,198167
OK,73,46,704,73,2014-10-01T11:35:00,2,28123576,198167
OK,74,45,704,74,2014-10-01T11:40:00,0,28124008,198167
OK,74,45,704,74,2014-10-01T11:45:00,3,28124457,198167
OK,69,49,704,69,2014-10-01T11:50:00,4,28124859,198167
OK,80,42,704,80,2014-10-01T11:55:00,3,28125308,198167
OK,80,42,704,80,2014-10-01T12:00:00,7,28125737,198167
OK,80,42,704,80,2014-10-01T12:10:00,0,28126538,198167
OK,81,41,704,81,2014-10-01T12:15:00,4,28126987,198167
OK,75,45,704,75,2014-10-01T12:20:00,2,28127436,198167
OK,76,44,704,76,2014-10-01T12:25:00,1,28127885,198167
OK,96,35,704,96,2014-10-01T12:30:00,1,28128313,198167
OK,112,30,704,112,2014-10-01T12:35:00,2,28128762,198167
OK,111,30,704,111,2014-10-01T12:40:00,1,28129197,198167
OK,111,30,704,111,2014-10-01T12:45:00,1,28129646,198167
OK,80,42,704,80,2014-10-01T12:50:00,3,28130080,198167
OK,89,38,704,89,2014-10-01T12:55:00,2,28130529,198167
OK,86,39,704,86,2014-10-01T13:00:00,1,28130957,198167
OK,51,66,704,51,2014-10-01T13:05:00,1,28131406,198167
OK,79,42,704,79,2014-10-01T13:10:00,3,28131843,198167
OK,75,45,704,75,2014-10-01T13:15:00,1,28132292,198167
OK,73,46,704,73,2014-10-01T13:20:00,1,28132730,198167
OK,76,44,704,76,2014-10-01T13:25:00,3,28133177,198167
OK,90,37,704,90,2014-10-01T13:30:00,2,28133615,198167
OK,104,32,704,104,2014-10-01T13:35:00,1,28134064,198167
OK,86,39,704,86,2014-10-01T13:40:00,2,28134503,198167
OK,89,38,704,89,2014-10-01T13:45:00,5,28134952,198167
OK,103,32,704,103,2014-10-01T13:50:00,1,28135371,198167
OK,81,41,704,81,2014-10-01T13:55:00,4,28135820,198167
OK,80,42,704,80,2014-10-01T14:00:00,5,28136257,198167
OK,73,46,704,73,2014-10-01T14:05:00,3,28136706,198167
OK,100,33,704,100,2014-10-01T14:10:00,3,28137146,198167
OK,100,33,704,100,2014-10-01T14:15:00,7,28137595,198167
OK,94,36,704,94,2014-10-01T14:20:00,7,28138029,198167
OK,94,36,704,94,2014-10-01T14:25:00,6,28138478,198167
OK,89,38,704,89,2014-10-01T14:30:00,4,28138906,198167
OK,109,31,704,109,2014-10-01T14:35:00,2,28139355,198167
OK,107,31,704,107,2014-10-01T14:40:00,5,28139766,198167
OK,73,46,704,73,2014-10-01T14:45:00,6,28140215,198167
OK,76,44,704,76,2014-10-01T14:50:00,6,28140657,198167
OK,83,40,704,83,2014-10-01T14:55:00,5,28141105,198167
OK,87,38,704,87,2014-10-01T15:00:00,4,28141532,198167
OK,79,42,704,79,2014-10-01T15:05:00,3,28141981,198167
OK,98,34,704,98,2014-10-01T15:10:00,0,28142409,198167
OK,85,39,704,85,2014-10-01T15:15:00,3,28142858,198167
OK,88,38,704,88,2014-10-01T15:20:00,4,28143285,198167
OK,90,37,704,90,2014-10-01T15:25:00,2,28143734,198167
OK,105,32,704,105,2014-10-01T15:30:00,2,28144182,198167
OK,105,32,704,105,2014-10-01T15:35:00,2,28144631,198167
OK,93,36,704,93,2014-10-01T15:40:00,4,28145052,198167
OK,78,43,704,78,2014-10-01T15:45:00,5,28145466,198167
OK,74,45,704,74,2014-10-01T15:50:00,3,28145915,198167
OK,80,42,704,80,2014-10-01T15:55:00,5,28146364,198167
OK,85,39,704,85,2014-10-01T16:00:00,6,28146813,198167
OK,67,50,704,67,2014-10-01T16:05:00,4,28147221,198167
OK,70,48,704,70,2014-10-01T16:10:00,5,28147665,198167
OK,69,49,704,69,2014-10-01T16:15:00,3,28148114,198167
OK,64,52,704,64,2014-10-01T16:20:00,2,28148515,198167
OK,60,56,704,60,2014-10-01T16:25:00,1,28148964,198167
OK,64,52,704,64,2014-10-01T16:30:00,2,28149403,198167
OK,66,51,704,66,2014-10-01T16:35:00,1,28149852,198167
OK,105,32,704,105,2014-10-01T16:40:00,2,28150278,198167
OK,77,44,704,77,2014-10-01T16:45:00,3,28150727,198167
OK,72,47,704,72,2014-10-01T16:50:00,2,28151145,198167
OK,70,48,704,70,2014-10-01T16:55:00,1,28151594,198167
OK,81,41,704,81,2014-10-01T17:05:00,2,28152043,198167
OK,97,34,704,97,2014-10-01T17:10:00,2,28152492,198167
OK,92,36,704,92,2014-10-01T17:15:00,3,28152938,198167
OK,92,36,704,92,2014-10-01T17:20:00,0,28153385,198167
OK,92,36,704,92,2014-10-01T17:25:00,0,28153834,198167
OK,92,36,704,92,2014-10-01T17:30:00,0,28154244,198167
OK,97,34,704,97,2014-10-01T17:35:00,1,28154693,198167
OK,100,33,704,100,2014-10-01T17:40:00,2,28155135,198167
OK,103,32,704,103,2014-10-01T17:45:00,0,28155583,198167
OK,81,41,704,81,2014-10-01T17:50:00,2,28156001,198167
OK,81,41,704,81,2014-10-01T17:55:00,2,28156450,198167
OK,78,43,704,78,2014-10-01T18:00:00,2,28156898,198167
OK,94,36,704,94,2014-10-01T18:05:00,1,28157337,198167
OK,85,39,704,85,2014-10-01T18:10:00,2,28157767,198167
OK,87,38,704,87,2014-10-01T18:15:00,2,28158215,198167
OK,71,47,704,71,2014-10-01T18:20:00,1,28158659,198167
OK,91,37,704,91,2014-10-01T18:25:00,1,28159104,198167
OK,91,37,704,91,2014-10-01T18:35:00,0,28159886,198167
OK,91,37,704,91,2014-10-01T18:40:00,0,28160335,198167
OK,91,37,704,91,2014-10-01T18:45:00,0,28160784,198167
OK,91,37,704,91,2014-10-01T18:50:00,0,28161222,198167
OK,79,42,704,79,2014-10-01T18:55:00,1,28161671,198167
OK,79,42,704,79,2014-10-01T19:00:00,3,28162088,198167
OK,80,42,704,80,2014-10-01T19:05:00,1,28162537,198167
OK,73,46,704,73,2014-10-01T19:10:00,1,28162931,198167
OK,73,46,704,73,2014-10-01T19:15:00,0,28163370,198167
OK,73,46,704,73,2014-10-01T19:20:00,0,28163818,198167
OK,61,55,704,61,2014-10-01T19:25:00,1,28164267,198167
OK,61,55,704,61,2014-10-01T19:30:00,0,28164698,198167
OK,61,55,704,61,2014-10-01T19:35:00,0,28165147,198167
OK,61,55,704,61,2014-10-01T19:40:00,0,28165572,198167
OK,61,55,704,61,2014-10-01T19:45:00,0,28166020,198167
OK,121,28,704,121,2014-10-01T19:55:00,1,28166823,198167
OK,121,28,704,121,2014-10-01T20:00:00,0,28167272,198167
OK,121,28,704,121,2014-10-01T20:05:00,0,28167700,198167
OK,88,38,704,88,2014-10-01T20:10:00,1,28168134,198167
OK,88,38,704,88,2014-10-01T20:15:00,0,28168583,198167
OK,122,27,704,122,2014-10-01T20:20:00,1,28169028,198167
OK,122,27,704,122,2014-10-01T20:25:00,1,28169477,198167
OK,122,27,704,122,2014-10-01T20:30:00,0,28169925,198167
OK,122,27,704,122,2014-10-01T20:35:00,0,28170351,198167
OK,122,27,704,122,2014-10-01T20:40:00,0,28170796,198167
OK,122,27,704,122,2014-10-01T20:45:00,0,28171244,198167
OK,122,27,704,122,2014-10-01T20:50:00,0,28171681,198167
OK,122,27,704,122,2014-10-01T20:55:00,0,28172127,198167
OK,122,27,704,122,2014-10-01T21:00:00,0,28172575,198167
OK,122,27,704,122,2014-10-01T21:05:00,0,28173021,198167
OK,122,27,704,122,2014-10-01T21:10:00,0,28173467,198167
OK,122,27,704,122,2014-10-01T21:15:00,0,28173916,198167
OK,122,27,704,122,2014-10-01T21:20:00,0,28174357,198167
OK,122,27,704,122,2014-10-01T21:25:00,0,28174806,198167
OK,122,27,704,122,2014-10-01T21:35:00,0,28175628,198167
OK,122,27,704,122,2014-10-01T21:40:00,0,28176077,198167
OK,122,27,704,122,2014-10-01T21:45:00,0,28176526,198167
OK,122,27,704,122,2014-10-01T21:50:00,0,28176975,198167
OK,122,27,704,122,2014-10-01T21:55:00,0,28177331,198167
OK,122,27,704,122,2014-10-01T22:00:00,0,28177771,198167
OK,122,27,704,122,2014-10-01T22:05:00,0,28178217,198167
OK,122,27,704,122,2014-10-01T22:10:00,0,28178666,198167
OK,122,27,704,122,2014-10-01T22:15:00,0,28179113,198167
OK,122,27,704,122,2014-10-01T22:20:00,0,28179547,198167
OK,122,27,704,122,2014-10-01T22:25:00,0,28179990,198167
OK,122,27,704,122,2014-10-01T22:30:00,0,28180437,198167
OK,122,27,704,122,2014-10-01T22:35:00,0,28180835,198167
OK,122,27,704,122,2014-10-01T22:40:00,0,28181284,198167
OK,122,27,704,122,2014-10-01T22:45:00,0,28181708,198167
OK,122,27,704,122,2014-10-01T22:50:00,0,28182156,198167
OK,122,27,704,122,2014-10-01T22:55:00,0,28182603,198167
OK,122,27,704,122,2014-10-01T23:00:00,0,28183052,198167
OK,122,27,704,122,2014-10-01T23:10:00,0,28183902,198167
OK,122,27,704,122,2014-10-01T23:15:00,0,28184347,198167
OK,122,27,704,122,2014-10-01T23:20:00,0,28184796,198167
OK,122,27,704,122,2014-10-01T23:25:00,0,28185231,198167
OK,122,27,704,122,2014-10-01T23:30:00,0,28186059,198167
OK,122,27,704,122,2014-10-01T23:35:00,0,28186502,198167
OK,122,27,704,122,2014-10-01T23:40:00,0,28186912,198167
OK,122,27,704,122,2014-10-01T23:45:00,0,28187342,198167
OK,122,27,704,122,2014-10-01T23:50:00,0,28187791,198167
OK,122,27,704,122,2014-10-01T23:55:00,0,28188233,198167
OK,122,27,704,122,2014-10-02T00:00:00,0,28188669,198167
OK,122,27,704,122,2014-10-02T00:10:00,0,28189117,198167
OK,122,27,704,122,2014-10-02T00:15:00,0,28189566,198167
OK,122,27,704,122,2014-10-02T00:20:00,0,28189988,198167
OK,122,27,704,122,2014-10-02T00:30:00,0,28190790,198167
OK,122,27,704,122,2014-10-02T00:35:00,0,28191239,198167
OK,122,27,704,122,2014-10-02T00:45:00,0,28191994,198167
OK,122,27,704,122,2014-10-02T00:50:00,0,28192443,198167
OK,122,27,704,122,2014-10-02T00:55:00,0,28192876,198167
OK,122,27,704,122,2014-10-02T01:05:00,0,28193687,198167
OK,122,27,704,122,2014-10-02T01:10:00,0,28194136,198167
OK,122,27,704,122,2014-10-02T01:15:00,0,28194585,198167
OK,122,27,704,122,2014-10-02T01:25:00,0,28195270,198167
OK,122,27,704,122,2014-10-02T01:30:00,0,28195719,198167
OK,122,27,704,122,2014-10-02T01:35:00,0,28196168,198167
OK,122,27,704,122,2014-10-02T01:40:00,0,28196452,198167
OK,122,27,704,122,2014-10-02T01:45:00,0,28196901,198167
OK,122,27,704,122,2014-10-02T01:50:00,0,28197324,198167
OK,122,27,704,122,2014-10-02T01:55:00,0,28197773,198167
OK,122,27,704,122,2014-10-02T02:00:00,0,28198221,198167
OK,122,27,704,122,2014-10-02T02:05:00,0,28198669,198167
OK,122,27,704,122,2014-10-02T02:10:00,0,28199118,198167
OK,122,27,704,122,2014-10-02T02:15:00,0,28199490,198167
OK,122,27,704,122,2014-10-02T02:20:00,0,28199932,198167
OK,122,27,704,122,2014-10-02T02:25:00,0,28200374,198167
OK,122,27,704,122,2014-10-02T02:30:00,0,28200817,198167
OK,122,27,704,122,2014-10-02T02:35:00,0,28201266,198167
OK,122,27,704,122,2014-10-02T02:45:00,0,28201697,198167
OK,122,27,704,122,2014-10-02T02:50:00,0,28202146,198167
OK,122,27,704,122,2014-10-02T02:55:00,0,28202595,198167
OK,122,27,704,122,2014-10-02T03:00:00,0,28203037,198167
OK,122,27,704,122,2014-10-02T03:05:00,0,28203485,198167
OK,122,27,704,122,2014-10-02T03:10:00,0,28203920,198167
OK,122,27,704,122,2014-10-02T03:30:00,0,28204369,198167
OK,122,27,704,122,2014-10-02T03:35:00,0,28204818,198167
OK,122,27,704,122,2014-10-02T03:40:00,0,28205267,198167
OK,122,27,704,122,2014-10-02T03:45:00,0,28205695,198167
OK,122,27,704,122,2014-10-02T03:50:00,0,28206122,198167
OK,122,27,704,122,2014-10-02T03:55:00,0,28206525,198167
OK,122,27,704,122,2014-10-02T04:00:00,0,28206974,198167
OK,122,27,704,122,2014-10-02T04:05:00,0,28207423,198167
OK,122,27,704,122,2014-10-02T04:10:00,0,28207842,198167
OK,122,27,704,122,2014-10-02T04:15:00,0,28208291,198167
OK,122,27,704,122,2014-10-02T04:20:00,0,28208718,198167
OK,122,27,704,122,2014-10-02T04:25:00,0,28209167,198167
OK,122,27,704,122,2014-10-02T04:30:00,0,28209605,198167
OK,122,27,704,122,2014-10-02T04:35:00,0,28210054,198167
OK,122,27,704,122,2014-10-02T04:40:00,0,28210477,198167
OK,122,27,704,122,2014-10-02T04:45:00,0,28210926,198167
OK,122,27,704,122,2014-10-02T04:50:00,0,28211351,198167
OK,104,32,704,104,2014-10-02T05:00:00,1,28212173,198167
OK,66,51,704,66,2014-10-02T05:05:00,5,28212622,198167
OK,107,31,704,107,2014-10-02T05:10:00,0,28213051,198167
OK,85,39,704,85,2014-10-02T05:15:00,2,28213500,198167
OK,71,47,704,71,2014-10-02T05:20:00,0,28213938,198167
OK,116,29,704,116,2014-10-02T05:25:00,3,28214387,198167
OK,116,29,704,116,2014-10-02T05:30:00,0,28214800,198167
OK,116,29,704,116,2014-10-02T05:35:00,0,28215249,198167
OK,95,35,704,95,2014-10-02T05:40:00,7,28215665,198167
OK,92,36,704,92,2014-10-02T05:45:00,0,28216114,198167
OK,92,36,704,92,2014-10-02T05:50:00,0,28216453,198167
OK,95,35,704,95,2014-10-02T05:55:00,6,28216893,198167
OK,94,36,704,94,2014-10-02T06:00:00,9,28217340,198167
OK,86,39,704,86,2014-10-02T06:05:00,5,28217789,198167
OK,75,45,704,75,2014-10-02T06:10:00,2,28218228,198167
OK,97,34,704,97,2014-10-02T06:15:00,6,28218677,198167
OK,102,33,704,102,2014-10-02T06:20:00,3,28219097,198167
OK,99,34,704,99,2014-10-02T06:30:00,5,28219919,198167
OK,71,47,704,71,2014-10-02T06:35:00,2,28220368,198167
OK,82,41,704,82,2014-10-02T06:40:00,2,28220802,198167
OK,88,38,704,88,2014-10-02T06:45:00,1,28221251,198167
OK,98,34,704,98,2014-10-02T07:00:00,6,28221918,198167
OK,93,36,704,93,2014-10-02T07:05:00,4,28222063,198167
OK,84,40,704,84,2014-10-02T07:10:00,2,28222512,198167
OK,61,55,704,61,2014-10-02T07:15:00,1,28222961,198167
OK,61,55,704,61,2014-10-02T07:20:00,0,28223392,198167
OK,93,36,704,93,2014-10-02T07:25:00,5,28223827,198167
OK,95,35,704,95,2014-10-02T07:35:00,7,28224630,198167
OK,76,44,704,76,2014-10-02T07:40:00,3,28225079,198167
OK,109,31,704,109,2014-10-02T07:45:00,0,28225489,198167
OK,67,50,704,67,2014-10-02T07:50:00,9,28225850,198167
OK,71,47,704,71,2014-10-02T07:55:00,3,28226299,198167
OK,68,49,704,68,2014-10-02T08:00:00,1,28226740,198167
OK,109,31,704,109,2014-10-02T08:05:00,1,28227189,198167
OK,109,31,704,109,2014-10-02T08:10:00,0,28227604,198167
OK,71,47,704,71,2014-10-02T08:15:00,5,28228051,198167
OK,60,56,704,60,2014-10-02T08:20:00,1,28228412,198167
OK,103,32,704,103,2014-10-02T08:25:00,0,28228861,198167
OK,103,32,704,103,2014-10-02T08:30:00,0,28229271,198167
OK,90,37,704,90,2014-10-02T08:40:00,1,28230070,198167
OK,90,37,704,90,2014-10-02T08:45:00,0,28230519,198167
OK,74,45,704,74,2014-10-02T08:50:00,2,28230885,198167
OK,74,45,704,74,2014-10-02T08:55:00,0,28231332,198167
OK,60,56,704,60,2014-10-02T09:00:00,7,28231757,198167
OK,71,47,704,71,2014-10-02T09:15:00,1,28232548,198167
OK,71,47,704,71,2014-10-02T09:20:00,0,28232997,198167
OK,71,47,704,71,2014-10-02T09:25:00,0,28233446,198167
OK,71,47,704,71,2014-10-02T09:30:00,0,28233870,198167
OK,61,55,704,61,2014-10-02T09:40:00,0,28234652,198167
OK,75,45,704,75,2014-10-02T09:45:00,3,28235101,198167
OK,86,39,704,86,2014-10-02T09:50:00,2,28235528,198167
OK,80,42,704,80,2014-10-02T09:55:00,2,28235977,198167
OK,91,37,704,91,2014-10-02T10:00:00,1,28236420,198167
OK,91,37,704,91,2014-10-02T10:05:00,0,28236867,198167
OK,88,38,704,88,2014-10-02T10:10:00,3,28237269,198167
OK,87,38,704,87,2014-10-02T10:15:00,5,28237717,198167
OK,78,43,704,78,2014-10-02T10:20:00,5,28238166,198167
OK,58,58,704,58,2014-10-02T10:25:00,1,28238613,198167
OK,58,58,704,58,2014-10-02T10:30:00,0,28239054,198167
OK,83,40,704,83,2014-10-02T10:35:00,4,28239503,198167
OK,88,38,704,88,2014-10-02T10:40:00,3,28239933,198167
OK,70,48,704,70,2014-10-02T10:45:00,0,28240382,198167
OK,70,48,704,70,2014-10-02T10:50:00,0,28240826,198167
OK,92,36,704,92,2014-10-02T10:55:00,7,28241275,198167
OK,79,42,704,79,2014-10-02T11:00:00,3,28241707,198167
OK,79,42,704,79,2014-10-02T11:05:00,0,28242155,198167
OK,69,49,704,69,2014-10-02T11:10:00,2,28242551,198167
OK,89,38,704,89,2014-10-02T11:15:00,2,28243000,198167
OK,84,40,704,84,2014-10-02T11:20:00,2,28243449,198167
OK,59,57,704,59,2014-10-02T11:25:00,0,28243774,198167
OK,59,57,704,59,2014-10-02T11:30:00,0,28244212,198167
OK,59,57,704,59,2014-10-02T11:35:00,0,28244641,198167
OK,59,57,704,59,2014-10-02T11:40:00,0,28245090,198167
OK,59,57,704,59,2014-10-02T11:45:00,0,28245539,198167
OK,86,39,704,86,2014-10-02T11:50:00,5,28245945,198167
OK,117,28,704,117,2014-10-02T11:55:00,1,28246394,198167
OK,117,28,704,117,2014-10-02T12:00:00,1,28246831,198167
OK,117,28,704,117,2014-10-02T12:05:00,0,28247279,198167
OK,117,28,704,117,2014-10-02T12:10:00,0,28247726,198167
OK,81,41,704,81,2014-10-02T12:15:00,2,28248156,198167
OK,75,45,704,75,2014-10-02T12:20:00,1,28248605,198167
OK,73,46,704,73,2014-10-02T12:25:00,0,28249052,198167
OK,73,46,704,73,2014-10-02T12:30:00,0,28249480,198167
OK,108,31,704,108,2014-10-02T12:35:00,1,28249924,198167
OK,108,31,704,108,2014-10-02T12:40:00,1,28250308,198167
OK,84,40,704,84,2014-10-02T12:45:00,2,28250739,198167
OK,67,50,704,67,2014-10-02T13:20:00,2,28251601,198167
OK,87,38,704,87,2014-10-02T13:30:00,2,28252066,198167
OK,66,51,704,66,2014-10-02T13:35:00,1,28252203,198167
OK,66,51,704,66,2014-10-02T13:40:00,0,28252650,198167
OK,79,42,704,79,2014-10-02T13:45:00,6,28253091,198167
OK,72,47,704,72,2014-10-02T13:50:00,2,28253509,198167
OK,116,29,704,116,2014-10-02T13:55:00,4,28253958,198167
OK,79,42,704,79,2014-10-02T14:10:00,3,28254689,198167
OK,67,50,704,67,2014-10-02T14:15:00,2,28254812,198167
OK,71,47,704,71,2014-10-02T14:20:00,4,28255261,198167
OK,73,46,704,73,2014-10-02T14:25:00,1,28255710,198167
OK,84,40,704,84,2014-10-02T14:30:00,9,28256138,198167
OK,97,34,704,97,2014-10-02T14:35:00,3,28256587,198167
OK,110,30,704,110,2014-10-02T14:40:00,3,28257015,198167
OK,81,41,704,81,2014-10-02T14:45:00,6,28257464,198167
OK,85,39,704,85,2014-10-02T14:50:00,9,28257905,198167
OK,104,32,704,104,2014-10-02T14:55:00,4,28258353,198167
OK,89,38,704,89,2014-10-02T15:00:00,3,28258786,198167
OK,89,38,704,89,2014-10-02T15:05:00,1,28259232,198167
OK,120,28,704,120,2014-10-02T15:10:00,1,28259680,198167
OK,83,40,704,83,2014-10-02T15:15:00,0,28260128,198167
OK,83,40,704,83,2014-10-02T15:20:00,0,28260561,198167
OK,65,52,704,65,2014-10-02T15:25:00,4,28261008,198167
OK,91,37,704,91,2014-10-02T15:35:00,3,28261813,198167
OK,91,37,704,91,2014-10-02T15:40:00,1,28262262,198167
OK,77,44,704,77,2014-10-02T15:45:00,8,28262709,198167
OK,60,56,704,60,2014-10-02T15:50:00,3,28263155,198167
OK,60,56,704,60,2014-10-02T15:55:00,0,28263593,198167
OK,60,56,704,60,2014-10-02T16:05:00,0,28264436,198167
OK,60,56,704,60,2014-10-02T16:10:00,1,28264885,198167
OK,60,56,704,60,2014-10-02T16:15:00,1,28265323,198167
OK,75,45,704,75,2014-10-02T16:25:00,3,28266159,198167
OK,81,41,704,81,2014-10-02T16:30:00,2,28266608,198167
OK,78,43,704,78,2014-10-02T16:35:00,1,28267380,198167
OK,88,38,704,88,2014-10-02T16:45:00,3,28267829,198167
OK,86,39,704,86,2014-10-02T16:50:00,0,28268278,198167
OK,82,41,704,82,2014-10-02T16:55:00,5,28268720,198167
OK,93,36,704,93,2014-10-02T17:00:00,4,28269169,198167